FW0225 Weather Reports


Display with metric or nautical units.
time (UTC)temp
F
wind
direction
speed
MPH
gust
MPH
rain 1hr
in
rain 24hr
in
rain mn
in
humidity
%
barometer
mb
20260902230521 73 36 2.0 4.0 0.00 0.00 0.00 67 1017.7
20260902230053 73 39 1.0 2.0 0.00 0.00 0.00 69 1017.6
20260902225516 74 39 0.0 2.0 0.00 0.00 0.00 67 1017.4
20260902225036 74 39 0.0 3.0 0.00 0.00 0.00 66 1017.5
20260902224518 74 39 1.0 3.0 0.00 0.00 0.00 65 1017.6
20260902224019 74 39 1.0 7.0 0.00 0.00 0.00 66 1017.7
20260902223521 75 40 2.0 7.0 0.00 0.00 0.00 65 1017.8
20260902223015 75 52 2.0 6.0 0.00 0.00 0.00 64 1017.9
20260902222518 75 54 2.0 6.0 0.00 0.00 0.00 63 1018.0
20260902222018 75 53 1.0 7.0 0.00 0.00 0.00 65 1018.0
20260902221522 74 53 4.0 11.0 0.00 0.00 0.00 65 1018.0
20260902221022 74 51 5.0 11.0 0.00 0.00 0.00 65 1018.0
20260902220531 73 45 3.0 7.0 0.00 0.00 0.00 67 1018.0
20260902220043 72 42 2.0 7.0 0.00 0.00 0.00 72 1017.9
20260902215527 71 42 1.0 7.0 0.00 0.00 0.00 76 1017.8
20260902215028 70 46 2.0 3.0 0.00 0.00 0.00 81 1017.7
20260902214553 69 47 2.0 3.0 0.00 0.00 0.00 83 1017.6
20260902214013 69 47 0.0 3.0 0.00 0.00 0.00 84 1017.6
20260902213516 69 47 0.0 2.0 0.00 0.00 0.00 84 1017.6
20260902213027 69 47 1.0 2.0 0.00 0.00 0.00 84 1017.5
20260902212531 69 47 1.0 2.0 0.00 0.00 0.00 84 1017.5
20260902212030 69 47 1.0 2.0 0.00 0.00 0.00 84 1017.5
20260902211514 69 47 1.0 2.0 0.00 0.00 0.00 84 1017.4
20260902211013 69 47 0.0 2.0 0.00 0.00 0.00 84 1017.4
20260902210516 69 47 0.0 2.0 0.00 0.00 0.00 84 1017.3
20260902210028 69 47 0.0 2.0 0.00 0.00 0.00 84 1017.3
20260902205533 69 47 0.0 1.0 0.00 0.00 0.00 84 1017.3
20260902205016 69 47 0.0 1.0 0.00 0.00 0.00 83 1017.3
20260902204520 69 47 0.0 1.0 0.00 0.00 0.00 83 1017.3
20260902204022 69 47 0.0 1.0 0.00 0.00 0.00 83 1017.3
20260902203545 69 47 0.0 1.0 0.00 0.00 0.00 83 1017.3
20260902203016 69 47 0.0 1.0 0.00 0.00 0.00 83 1017.3
20260902202520 69 47 0.0 0.0 0.00 0.00 0.00 83 1017.4
20260902202021 69 47 0.0 5.0 0.00 0.00 0.00 83 1017.3
20260902201524 70 47 1.0 5.0 0.00 0.00 0.00 82 1017.3
20260902201027 70 47 1.0 3.0 0.00 0.00 0.00 82 1017.3
20260902200531 70 47 1.0 3.0 0.00 0.00 0.00 82 1017.3
20260902200025 70 47 0.0 2.0 0.00 0.00 0.00 82 1017.3
20260902195530 70 47 0.0 2.0 0.00 0.00 0.00 82 1017.4
20260902195029 70 47 0.0 1.0 0.00 0.00 0.00 81 1017.4
20260902194516 70 47 0.0 1.0 0.00 0.00 0.00 81 1017.3
20260902194019 71 47 0.0 2.0 0.00 0.00 0.00 81 1017.3
20260902193524 71 47 1.0 2.0 0.00 0.00 0.00 81 1017.2
20260902193016 71 47 1.0 3.0 0.00 0.00 0.00 80 1017.2
20260902192518 71 47 1.0 3.0 0.00 0.00 0.00 80 1017.2
20260902192040 71 47 0.0 2.0 0.00 0.00 0.00 80 1017.3
20260902191522 71 47 0.0 2.0 0.00 0.00 0.00 80 1017.4
20260902191023 71 47 0.0 2.0 0.00 0.00 0.00 80 1017.2
20260902190528 72 47 0.0 1.0 0.00 0.00 0.00 80 1017.1
20260902190018 72 47 0.0 1.0 0.00 0.00 0.00 79 1017.1
20260902185521 72 47 0.0 1.0 0.00 0.00 0.00 79 1017.0
20260902185020 72 47 0.0 0.0 0.00 0.00 0.00 79 1017.0
20260902184523 72 47 0.0 1.0 0.00 0.00 0.00 78 1016.9
20260902184022 73 47 0.0 2.0 0.00 0.00 0.00 78 1016.9
20260902183526 73 47 0.0 2.0 0.00 0.00 0.00 77 1016.8
20260902183017 73 47 0.0 0.0 0.00 0.00 0.00 77 1016.8
20260902182540 74 47 0.0 0.0 0.00 0.00 0.00 77 1016.7
20260902182018 74 47 0.0 1.0 0.00 0.00 0.00 76 1016.5
20260902181543 74 47 1.0 1.0 0.00 0.00 0.00 76 1016.3
20260902181025 75 47 0.0 1.0 0.00 0.00 0.00 75 1016.2
20260902180512 75 47 0.0 0.0 0.00 0.00 0.00 74 1016.2
20260902180046 75 47 0.0 0.0 0.00 0.00 0.00 75 1016.1
20260902175529 75 47 0.0 0.0 0.00 0.00 0.00 75 1016.1
20260902175029 76 47 0.0 0.0 0.00 0.00 0.00 74 1016.1
20260902174534 76 47 0.0 0.0 0.00 0.00 0.00 73 1016.0
20260902174035 76 47 0.0 0.0 0.00 0.00 0.00 74 1015.9
20260902173538 77 47 0.0 0.0 0.00 0.00 0.00 74 1015.9
20260902173012 77 47 0.0 0.0 0.00 0.00 0.00 74 1015.8
20260902172516 77 47 0.0 0.0 0.00 0.00 0.00 73 1015.8
20260902172039 77 47 0.0 1.0 0.00 0.00 0.00 73 1015.8
20260902171523 77 47 0.0 1.0 0.00 0.00 0.00 73 1015.7
20260902171024 77 47 0.0 1.0 0.00 0.00 0.00 72 1015.5
20260902170527 77 47 0.0 1.0 0.00 0.00 0.00 73 1015.5
20260902170018 77 47 0.0 1.0 0.00 0.00 0.00 72 1015.5
20260902165523 77 47 0.0 1.0 0.00 0.00 0.00 71 1015.5
20260902165023 78 47 0.0 1.0 0.00 0.00 0.00 71 1015.5
20260902164528 78 47 0.0 1.0 0.00 0.00 0.00 71 1015.4
20260902164028 78 47 0.0 1.0 0.00 0.00 0.00 70 1015.4
20260902163515 79 47 0.0 0.0 0.00 0.00 0.00 70 1015.4
20260902163044 79 47 0.0 0.0 0.00 0.00 0.00 70 1015.4
20260902162511 80 47 0.0 1.0 0.00 0.00 0.00 69 1015.4
20260902162012 80 47 0.0 1.0 0.00 0.00 0.00 68 1015.4
20260902161513 81 47 0.0 1.0 0.00 0.00 0.00 68 1015.4
20260902161033 82 47 0.0 1.0 0.00 0.00 0.00 68 1015.4
20260902160537 82 47 0.0 1.0 0.00 0.00 0.00 67 1015.4
20260902160030 83 47 1.0 1.0 0.00 0.00 0.00 66 1015.4
20260902155513 83 47 0.0 1.0 0.00 0.00 0.00 65 1015.5
20260902155014 83 47 0.0 1.0 0.00 0.00 0.00 64 1015.5
20260902154519 84 47 0.0 1.0 0.00 0.00 0.00 64 1015.5
20260902154020 84 47 0.0 1.0 0.00 0.00 0.00 62 1015.5
20260902153523 85 47 0.0 1.0 0.00 0.00 0.00 62 1015.5
20260902153017 85 47 1.0 1.0 0.00 0.00 0.00 62 1015.5
20260902152540 86 47 0.0 2.0 0.00 0.00 0.00 61 1015.5
20260902152021 86 47 1.0 2.0 0.00 0.00 0.00 62 1015.6
20260902151526 86 47 0.0 2.0 0.00 0.00 0.00 62 1015.5
20260902151027 86 47 0.0 1.0 0.00 0.00 0.00 60 1015.6
20260902150514 86 47 0.0 1.0 0.00 0.00 0.00 61 1015.6
20260902150026 86 47 0.0 1.0 0.00 0.00 0.00 56 1015.6
20260902145530 86 47 0.0 1.0 0.00 0.00 0.00 57 1015.6
20260902145031 86 47 0.0 2.0 0.00 0.00 0.00 55 1015.6
20260902144516 87 47 1.0 3.0 0.00 0.00 0.00 54 1015.6
20260902144016 87 47 0.0 3.0 0.00 0.00 0.00 52 1015.6
20260902143521 88 47 1.0 2.0 0.00 0.00 0.00 51 1015.6
20260902143014 88 47 1.0 2.0 0.00 0.00 0.00 53 1015.6
20260902142519 88 47 1.0 2.0 0.00 0.00 0.00 51 1015.7
20260902142039 89 47 0.0 2.0 0.00 0.00 0.00 48 1015.8
20260902141524 89 47 0.0 2.0 0.00 0.00 0.00 48 1015.8
20260902141046 89 47 1.0 2.0 0.00 0.00 0.00 47 1015.9
20260902140549 90 47 1.0 2.0 0.00 0.00 0.00 48 1016.0
20260902140020 89 47 1.0 4.0 0.00 0.00 0.00 45 1015.9
20260902135524 89 47 1.0 4.0 0.00 0.00 0.00 47 1016.0
20260902135025 89 47 2.0 4.0 0.00 0.00 0.00 45 1016.0
20260902134531 88 46 1.0 2.0 0.00 0.00 0.00 49 1016.0
20260902134051 87 46 0.0 2.0 0.00 0.00 0.00 57 1016.0
20260902133512 87 46 0.0 1.0 0.00 0.00 0.00 57 1016.1
20260902133024 87 46 0.0 1.0 0.00 0.00 0.00 57 1016.1
20260902132529 87 46 1.0 1.0 0.00 0.00 0.00 54 1016.1
20260902132030 88 46 1.0 2.0 0.00 0.00 0.00 52 1016.2
20260902131533 88 46 1.0 3.0 0.00 0.00 0.00 48 1016.2
20260902131011 89 46 2.0 5.0 0.00 0.00 0.00 47 1016.2
20260902130515 89 47 2.0 5.0 0.00 0.00 0.00 45 1016.2
20260902130027 90 59 2.0 5.0 0.00 0.00 0.00 43 1016.3
20260902125511 90 72 3.0 6.0 0.00 0.00 0.00 42 1016.3
20260902125013 90 126 1.0 6.0 0.00 0.00 0.00 41 1016.3
20260902124518 90 115 2.0 4.0 0.00 0.00 0.00 43 1016.3
20260902124019 90 145 2.0 4.0 0.00 0.00 0.00 43 1016.3
20260902123522 91 108 1.0 3.0 0.00 0.00 0.00 41 1016.4
20260902123015 90 73 1.0 5.0 0.00 0.00 0.00 41 1016.4
20260902122538 90 82 2.0 8.0 0.00 0.00 0.00 42 1016.5
20260902122017 90 69 1.0 8.0 0.00 0.00 0.00 42 1016.6
20260902121523 90 59 2.0 4.0 0.00 0.00 0.00 41 1016.6
20260902121024 90 53 2.0 5.0 0.00 0.00 0.00 44 1016.7
20260902120526 89 55 2.0 5.0 0.00 0.00 0.00 43 1016.7
20260902120017 89 120 2.0 4.0 0.00 0.00 0.00 42 1016.7
20260902115541 89 56 1.0 7.0 0.00 0.00 0.00 42 1016.8
20260902115020 89 49 3.0 7.0 0.00 0.00 0.00 44 1017.0
20260902114523 89 84 3.0 10.0 0.00 0.00 0.00 44 1016.9
20260902114043 89 74 4.0 10.0 0.00 0.00 0.00 44 1017.0
20260902113524 89 79 5.0 9.0 0.00 0.00 0.00 44 1017.0
20260902113017 88 68 2.0 7.0 0.00 0.00 0.00 44 1017.0
20260902112522 88 63 4.0 10.0 0.00 0.00 0.00 44 1017.1
20260902112024 88 56 3.0 10.0 0.00 0.00 0.00 46 1017.1
20260902111548 88 64 4.0 11.0 0.00 0.00 0.00 45 1017.2
20260902111026 87 37 4.0 11.0 0.00 0.00 0.00 45 1017.2
20260902110551 87 33 5.0 10.0 0.00 0.00 0.00 45 1017.3
20260902110024 87 76 4.0 10.0 0.00 0.00 0.00 44 1017.4
20260902105527 87 30 5.0 9.0 0.00 0.00 0.00 44 1017.4
20260902105049 87 63 4.0 11.0 0.00 0.00 0.00 45 1017.4
20260902104531 87 70 5.0 13.0 0.00 0.00 0.00 44 1017.5
20260902104053 87 57 5.0 13.0 0.00 0.00 0.00 45 1017.5
20260902103514 87 56 3.0 10.0 0.00 0.00 0.00 46 1017.6
20260902103025 86 61 5.0 11.0 0.00 0.00 0.00 45 1017.7
20260902102514 86 55 4.0 11.0 0.00 0.00 0.00 44 1017.7
20260902102016 86 42 3.0 9.0 0.00 0.00 0.00 45 1017.8
20260902101540 86 98 5.0 12.0 0.00 0.00 0.00 46 1017.9
20260902101018 86 51 2.0 14.0 0.00 0.00 0.00 45 1017.9
20260902100522 86 50 4.0 10.0 0.00 0.00 0.00 45 1017.9
20260902100016 86 67 3.0 9.0 0.00 0.00 0.00 46 1017.9
20260902095541 85 40 3.0 11.0 0.00 0.00 0.00 45 1017.9
20260902095021 85 37 6.0 13.0 0.00 0.00 0.00 46 1018.0
20260902094524 85 57 6.0 16.0 0.00 0.00 0.00 45 1018.1
20260902094025 85 69 6.0 16.0 0.00 0.00 0.00 45 1018.1
20260902093530 85 61 4.0 13.0 0.00 0.00 0.00 45 1018.2
20260902093044 85 43 5.0 10.0 0.00 0.00 0.00 45 1018.2
20260902092526 84 45 4.0 12.0 0.00 0.00 0.00 46 1018.3
20260902092047 84 55 6.0 12.0 0.00 0.00 0.00 46 1018.3
20260902091529 84 355 6.0 13.0 0.00 0.00 0.00 45 1018.3
20260902091012 84 78 5.0 13.0 0.00 0.00 0.00 46 1018.4
20260902090538 84 53 6.0 14.0 0.00 0.00 0.00 45 1018.4
20260902090031 84 67 5.0 15.0 0.00 0.00 0.00 45 1018.5
20260902085516 84 62 6.0 12.0 0.00 0.00 0.00 45 1018.4
20260902085016 83 54 4.0 13.0 0.00 0.00 0.00 46 1018.4
20260902084520 83 63 5.0 12.0 0.00 0.00 0.00 45 1018.4
20260902084041 83 69 7.0 12.0 0.00 0.00 0.00 45 1018.4
20260902083525 83 59 4.0 11.0 0.00 0.00 0.00 47 1018.4
20260902083018 83 38 6.0 11.0 0.00 0.00 0.00 47 1018.3
20260902082521 83 49 5.0 12.0 0.00 0.00 0.00 46 1018.3
20260902082019 83 55 4.0 13.0 0.00 0.00 0.00 48 1018.3
20260902081523 82 72 4.0 12.0 0.00 0.00 0.00 48 1018.2
20260902081024 82 59 4.0 12.0 0.00 0.00 0.00 47 1018.2
20260902080528 82 75 5.0 16.0 0.00 0.00 0.00 49 1018.1
20260902080019 82 49 8.0 16.0 0.00 0.00 0.00 47 1018.1
20260902075523 82 61 5.0 13.0 0.00 0.00 0.00 49 1018.1
20260902075043 81 33 4.0 13.0 0.00 0.00 0.00 48 1018.2
20260902074545 81 63 4.0 11.0 0.00 0.00 0.00 50 1018.2
20260902074028 81 59 4.0 13.0 0.00 0.00 0.00 49 1018.1
20260902073532 80 48 7.0 13.0 0.00 0.00 0.00 49 1018.1
20260902073025 80 58 5.0 11.0 0.00 0.00 0.00 50 1018.2
20260902072529 80 59 6.0 12.0 0.00 0.00 0.00 50 1018.1
20260902072027 80 54 4.0 12.0 0.00 0.00 0.00 51 1018.1
20260902071530 80 61 6.0 14.0 0.00 0.00 0.00 51 1018.1
20260902071051 79 49 7.0 14.0 0.00 0.00 0.00 51 1018.0
20260902070512 79 36 6.0 14.0 0.00 0.00 0.00 52 1018.0
20260902070044 79 55 5.0 14.0 0.00 0.00 0.00 52 1017.9
20260902065527 78 76 4.0 13.0 0.00 0.00 0.00 53 1018.0
20260902065028 78 75 6.0 10.0 0.00 0.00 0.00 53 1018.0
20260902064551 77 57 4.0 11.0 0.00 0.00 0.00 54 1018.0
20260902064032 77 63 5.0 12.0 0.00 0.00 0.00 54 1018.0
20260902063515 76 60 5.0 12.0 0.00 0.00 0.00 56 1018.0
20260902063028 76 56 4.0 12.0 0.00 0.00 0.00 56 1018.1
20260902062532 76 50 7.0 12.0 0.00 0.00 0.00 56 1018.0
20260902062018 76 37 2.0 6.0 0.00 0.00 0.00 57 1018.0
20260902061521 75 44 1.0 9.0 0.00 0.00 0.00 59 1018.1
20260902061022 75 42 3.0 11.0 0.00 0.00 0.00 58 1018.1
20260902060526 75 51 4.0 11.0 0.00 0.00 0.00 57 1018.1
20260902060020 75 21 3.0 9.0 0.00 0.00 0.00 58 1018.1
20260902055525 75 12 2.0 8.0 0.00 0.00 0.00 58 1018.1
20260902055026 74 12 1.0 4.0 0.00 0.00 0.00 59 1018.1
20260902054529 74 5 2.0 8.0 0.00 0.00 0.00 59 1018.1
20260902054028 74 5 2.0 8.0 0.00 0.00 0.00 59 1018.1
20260902053531 73 12 1.0 4.0 0.00 0.00 0.00 62 1018.1
20260902053023 74 13 1.0 5.0 0.00 0.00 0.00 61 1018.0
20260902052549 74 15 2.0 5.0 0.00 0.00 0.00 61 1018.0
20260902052029 73 13 2.0 6.0 0.00 0.00 0.00 60 1017.9
20260902051512 73 17 2.0 8.0 0.00 0.00 0.00 63 1017.9
20260902051013 72 17 2.0 8.0 0.00 0.00 0.00 62 1018.0
20260902050515 72 16 1.0 5.0 0.00 0.00 0.00 63 1017.9
20260902050013 72 16 1.0 5.0 0.00 0.00 0.00 64 1017.9
20260902045516 72 16 1.0 3.0 0.00 0.00 0.00 65 1017.9
20260902045036 72 16 1.0 3.0 0.00 0.00 0.00 63 1017.9
20260902044519 72 16 1.0 4.0 0.00 0.00 0.00 64 1017.9
20260902044018 72 17 2.0 4.0 0.00 0.00 0.00 66 1017.8
20260902043524 71 18 1.0 3.0 0.00 0.00 0.00 65 1017.8
20260902043019 71 19 1.0 3.0 0.00 0.00 0.00 64 1017.7
20260902042520 71 19 1.0 3.0 0.00 0.00 0.00 66 1017.7
20260902042042 71 19 1.0 3.0 0.00 0.00 0.00 67 1017.7
20260902041524 71 19 1.0 3.0 0.00 0.00 0.00 67 1017.6
20260902041044 71 19 1.0 3.0 0.00 0.00 0.00 67 1017.6
20260902040526 71 19 1.0 3.0 0.00 0.00 0.00 67 1017.6
20260902040020 71 20 1.0 3.0 0.00 0.00 0.00 67 1017.6
20260902035524 71 20 1.0 4.0 0.00 0.00 0.00 65 1017.6
20260902035025 71 20 2.0 4.0 0.00 0.00 0.00 65 1017.6
20260902034528 72 22 1.0 3.0 0.00 0.00 0.00 65 1017.7
20260902034030 72 23 1.0 3.0 0.00 0.00 0.00 64 1017.7
20260902033554 72 23 2.0 4.0 0.00 0.00 0.00 64 1017.7
20260902033024 72 24 1.0 4.0 0.00 0.00 0.00 64 1017.8
20260902032527 72 24 2.0 4.0 0.00 0.00 0.00 64 1017.7
20260902032030 72 26 1.0 3.0 0.00 0.00 0.00 63 1017.7
20260902031534 73 26 1.0 5.0 0.00 0.00 0.00 63 1017.7
20260902031012 72 26 3.0 5.0 0.00 0.00 0.00 62 1017.7
20260902030515 73 27 1.0 3.0 0.00 0.00 0.00 63 1017.6
20260902030027 73 28 1.0 3.0 0.00 0.00 0.00 64 1017.7
20260902025529 73 28 1.0 8.0 0.00 0.00 0.00 64 1017.7
20260902025030 73 28 2.0 8.0 0.00 0.00 0.00 61 1017.7
20260902024515 73 36 1.0 5.0 0.00 0.00 0.00 64 1017.8
20260902024014 73 37 2.0 6.0 0.00 0.00 0.00 62 1017.7
20260902023519 74 44 2.0 9.0 0.00 0.00 0.00 61 1017.8
20260902023033 74 42 4.0 10.0 0.00 0.00 0.00 61 1017.7
20260902022537 74 42 3.0 11.0 0.00 0.00 0.00 60 1017.8
20260902022015 74 52 4.0 14.0 0.00 0.00 0.00 60 1017.7
20260902021517 75 37 4.0 14.0 0.00 0.00 0.00 60 1017.6
20260902021017 75 343 2.0 4.0 0.00 0.00 0.00 60 1017.6
20260902020526 75 343 2.0 3.0 0.00 0.00 0.00 58 1017.6
20260902020019 75 344 2.0 3.0 0.00 0.00 0.00 58 1017.6
20260902015524 75 344 1.0 4.0 0.00 0.00 0.00 57 1017.6
20260902015026 75 344 2.0 5.0 0.00 0.00 0.00 57 1017.6
20260902014550 75 345 2.0 5.0 0.00 0.00 0.00 58 1017.5
20260902014030 75 342 1.0 3.0 0.00 0.00 0.00 57 1017.5
20260902013515 75 342 1.0 4.0 0.00 0.00 0.00 57 1017.5
20260902013027 75 342 2.0 4.0 0.00 0.00 0.00 58 1017.5
20260902012551 76 344 1.0 6.0 0.00 0.00 0.00 58 1017.5
20260902012052 76 344 3.0 9.0 0.00 0.00 0.00 57 1017.7
20260902011513 76 348 2.0 9.0 0.00 0.00 0.00 56 1017.8
20260902011013 76 345 2.0 5.0 0.00 0.00 0.00 57 1017.7
20260902010515 76 350 2.0 5.0 0.00 0.00 0.00 56 1017.9
20260902010027 76 355 2.0 6.0 0.00 0.00 0.00 56 1017.9
20260902005531 76 355 2.0 6.0 0.00 0.00 0.00 57 1017.8
20260902005032 76 360 2.0 5.0 0.00 0.00 0.00 57 1017.9
20260902004517 76 5 2.0 5.0 0.00 0.00 0.00 57 1018.0
20260902004017 76 9 2.0 9.0 0.00 0.00 0.00 58 1018.0
20260902003525 76 5 2.0 9.0 0.00 0.00 0.00 58 1018.1
20260902003038 76 333 2.0 4.0 0.00 0.00 0.00 59 1018.1
20260902002518 76 335 2.0 4.0 0.00 0.00 0.00 58 1018.1
20260902002018 75 338 1.0 3.0 0.00 0.00 0.00 59 1018.2
20260902001522 75 338 1.0 4.0 0.00 0.00 0.00 60 1018.1
20260902001022 76 338 2.0 4.0 0.00 0.00 0.00 58 1018.1
20260902000525 76 339 1.0 3.0 0.00 0.00 0.00 60 1018.2
20260902000038 76 340 0.0 4.0 0.00 0.00 0.00 60 1018.3
20260901235521 77 340 1.0 8.0 0.00 0.00 0.00 59 1018.2
20260901235021 77 340 3.0 8.0 0.00 0.00 0.00 57 1018.3
20260901234525 76 5 1.0 8.0 0.00 0.00 0.00 57 1018.2
20260901234024 75 44 2.0 5.0 0.00 0.00 0.00 64 1018.3
20260901233526 75 47 2.0 5.0 0.00 0.00 0.00 62 1018.3
20260901233019 75 49 1.0 5.0 0.00 0.00 0.00 60 1018.3
20260901232523 74 50 2.0 4.0 0.00 0.00 0.00 64 1018.2
20260901232029 73 51 2.0 4.0 0.00 0.00 0.00 63 1018.2
20260901231531 73 49 1.0 4.0 0.00 0.00 0.00 65 1018.3
20260901231029 73 50 2.0 4.0 0.00 0.00 0.00 67 1018.3